| Station | Date | Time | Temp (°F) | RH (%) | Dew Pt (°F) | Wind Spd (mph) | Wind Dir (°) | Wind Gust (mph) | Latest Rain (In) | Daily Rain (In) | Daily Max Temp (°F) | Daily Min Temp (°F) |
|---|---|---|---|---|---|---|---|---|---|---|---|---|
| Bavarian Lion EFW | 5/3/26 | 1845 | 60.3 1.5 | - | - | - | - | - | 0.00 | 0.00 | 65.6 3.2 | 51.9 0.2 |
| Rockpile Lower (Cooley) | 5/3/26 | 1830 | 54.2 4.9 | 73 1 | 45.7 5.0 | 6.1 1.2 | W | 262 | 11.0 2.3 | 0.00 | 0.00 | 61.8 4.7 | 49.4 0.9 |
| Rockpile Upper (Cooley) | 5/3/26 | 1845 | 50.8 7.9 | 79 5 | 44.5 5.9 | 3.0 0.9 | WNW | 294 | 8.3 2.0 | 0.00 | 0.00 | 58.8 7.3 | 46.6 0.5 |
| Lower Dry Creek Valley | 5/3/26 | 1845 | 62.1 1.3 | 55 13 | 45.9 4.3 | 2.6 2.9 | WSW | 245 | 7.8 2.0 | 0.00 | 0.00 | 68.2 3.5 | 53.3 0.9 |
| Geyserville-South (Nervo Station) | 5/3/26 | 1845 | 60.4 1.2 | - | - | 1.8 3.4 | W | 271 | 6.8 2.3 | 0.00 | 0.00 | 64.7 1.2 | 51.8 0.6 |
| Franz Valley (Stornetta) | 5/3/26 | 1845 | 60.2 3.2 | 64 9 | 48.1 0.6 | 2.2 0.6 | SW | 236 | 5.6 1.0 | 0.00 | 0.00 | 64.8 1.8 | 51.7 2.6 |
| Geyserville (Ranch 3) | 5/3/26 | 1845 | 62.0 0.2 | 57 10 | 46.5 4.3 | 2.3 3.0 | SW | 228 | 4.6 4.4 | 0.00 | 0.00 | 66.6 0.7 | 52.8 0.2 |
| Geyserville-North (Hoffman) | 5/3/26 | 1845 | 61.7 0.2 | 60 9 | 47.9 3.9 | 3.2 2.5 | SW | 230 | 5.8 4.2 | 0.00 | 0.00 | 67.6 0.8 | 53.1 0.3 |
| Knights Valley (Bavarian Lion) | 5/3/26 | 1845 | 59.3 1.7 | 61 12 | 45.7 3.1 | 3.8 0.3 | W | 269 | 7.5 0.0 | 0.00 | 0.00 | 64.1 2.6 | 51.5 0.8 |
| HWY 128/Chalk Hill Rd (Landslide) | 5/3/26 | 1800 | 62.3 2.5 | 57 15 | 46.9 3.7 | 4.0 1.0 | SSW | 204 | 8.7 2.6 | 0.00 | 0.00 | 68.2 3.0 | 53.0 0.7 |
| Newman Knights Valley | 5/3/26 | 1845 | 60.1 1.8 | 69 7 | 49.9 0.7 | 3.6 1.1 | SW | 227 | 6.2 2.1 | 0.00 | 0.00 | 63.9 0.8 | 52.4 0.4 |
| Jimtown-North (Piccolo Ranch 15) | 5/3/26 | 1845 | 61.4 1.6 | 56 12 | 45.5 3.8 | 1.9 0.2 | S | 173 | 4.8 0.9 | 0.00 | 0.00 | 67.2 1.3 | 52.7 0.7 |
| Peterson (Ranch 09) | 5/3/26 | 1845 | 61.1 1.4 | 56 13 | 45.4 4.2 | 3.9 1.1 | SSW | 207 | 6.7 3.2 | 0.00 | 0.00 | 66.2 2.3 | 52.1 0.9 |
| Cloverdale-SE (Ranch 38) | 5/3/26 | 1845 | 58.4 1.5 | 70 6 | 48.8 3.7 | 2.9 6.1 | NW | 308 | 5.6 8.1 | 0.00 | 0.00 | 65.9 0.0 | 51.0 0.8 |
| Geyserville-East (Ranch 40) | 5/3/26 | 1830 | 58.9 0.9 | 69 11 | 48.6 3.2 | 4.7 4.8 | SSW | 209 | 8.7 5.7 | 0.00 | 0.00 | 66.1 3.9 | 50.0 0.0 |
| N Chalk Hill Rd (Ranch 63) | 5/3/26 | 1845 | 61.0 2.9 | 58 14 | 45.9 3.1 | 2.3 2.7 | SSE | 158 | 5.6 4.3 | 0.00 | 0.00 | 65.4 0.7 | 51.2 1.1 |
| Cloverdale-East (Ranch 83) | 5/3/26 | 1845 | 60.1 2.5 | - | - | 2.0 3.8 | W | 274 | 4.6 6.7 | 0.00 | 0.00 | 68.1 0.3 | 52.9 1.7 |
| Crazy Creek Ranch | 5/3/26 | 1845 | 61.5 2.3 | 64 12 | 49.0 2.6 | 2.7 2.1 | SSE | 151 | 5.6 3.9 | 0.00 | 0.00 | 66.8 1.7 | 52.3 0.1 |
| Lytton East (Hill 5) | 5/3/26 | 1845 | 60.3 1.8 | 59 15 | 45.8 4.2 | 4.4 2.4 | WSW | 243 | 8.9 2.6 | 0.00 | 0.00 | 67.3 4.4 | 51.9 0.9 |
| Lytton East (Shop Hill Bottom) | 5/3/26 | 1845 | 60.9 1.7 | 57 14 | 45.4 4.2 | 2.9 3.4 | SW | 229 | 5.7 5.7 | 0.00 | 0.00 | 67.4 4.0 | 52.2 1.0 |
| Lytton West Hill (23PS) | 5/3/26 | 1845 | 61.3 1.9 | 57 14 | 45.8 4.0 | 3.7 2.3 | WSW | 248 | 7.7 3.0 | 0.00 | 0.00 | 67.8 3.6 | 52.5 0.9 |
| Lytton West Lower (Lew 6) | 5/3/26 | 1845 | 60.6 1.0 | 59 11 | 46.2 3.7 | 3.5 1.8 | WSW | 242 | 5.8 3.3 | 0.00 | 0.00 | 67.2 3.2 | 52.4 0.9 |
| Whitton Ranch (201e) | 5/3/26 | 1845 | 61.4 1.1 | 58 12 | 46.7 4.0 | 2.4 1.6 | WSW | 257 | 6.4 2.0 | 0.00 | 0.00 | 67.1 1.9 | 52.3 0.6 |
| Upper Dry Creek Valley | 5/3/26 | 1845 | 61.6 0.0 | 59 8 | 47.2 3.6 | 3.5 2.8 | SW | 222 | 6.4 3.7 | 0.00 | 0.00 | 67.7 1.7 | 53.2 1.2 |
| Big River | 5/3/26 | 1845 | 61.0 2.7 | 61 14 | 47.6 2.9 | 1.9 4.2 | WSW | 255 | 5.7 4.6 | 0.00 | 0.00 | 65.7 2.3 | 52.3 0.5 |
| Max | 62.3 | 79 | 49.9 | 6.1 | - | 11.0 | 0.00 | 0.00 | 68.2 | 53.3 | ||
| Avg | 60.1 | 62 | 46.8 | 3.1 | - | 6.7 | 0.00 | - | - | - | ||
| Min | 50.8 | 55 | 44.5 | 1.8 | - | 4.6 | 0.00 | 0.00 | 58.8 | 46.6 |
| Station | Date | Time | Temp (°F) | RH (%) | Dew Pt (°F) | Wind Spd (mph) | Wind Dir (°) | Wind Gust (mph) | Latest Rain (In) | Daily Rain (In) | Daily Max Temp (°F) | Daily Min Temp (°F) |
|---|---|---|---|---|---|---|---|---|---|---|---|---|
| Windsor-NW (Ranch 8) | 5/3/26 | 1845 | 60.3 2.2 | 66 11 | 49.1 1.9 | 4.4 1.0 | SW | 228 | 7.6 1.5 | 0.00 | 0.00 | 66.3 2.5 | 52.7 0.5 |
| Windsor-East (Ranch 16) | 5/3/26 | 1845 | 59.6 1.7 | 68 3 | 49.2 0.4 | 3.1 2.4 | S | 181 | 5.9 3.2 | 0.00 | 0.00 | 65.8 3.7 | 53.1 0.7 |
| Mark West-North (Ranch 14) | 5/3/26 | 1845 | 59.4 2.0 | 67 5 | 48.4 0.1 | 2.4 1.2 | SSW | 193 | 5.7 1.4 | 0.00 | 0.00 | 65.6 4.2 | 53.0 0.4 |
| Windsor-SE (Silk Rd) | 5/3/26 | 1845 | 61.0 2.5 | 61 11 | 47.5 1.9 | 4.2 0.1 | W | 276 | 7.6 0.3 | 0.00 | 0.00 | 64.2 1.8 | 53.4 1.1 |
| Fulton-NW (Ranch 5) | 5/3/26 | 1845 | 61.0 3.3 | 66 8 | 49.5 0.2 | 3.8 0.5 | SSW | 195 | 8.6 0.2 | 0.00 | 0.00 | 66.0 4.1 | 53.0 0.4 |
| Bisordi (Fulton) | 5/3/26 | 1845 | 61.1 3.9 | 71 7 | 51.8 1.3 | 4.1 0.8 | SW | 219 | 9.2 1.2 | 0.00 | 0.00 | 64.4 3.0 | 53.4 0.5 |
| Windsor-South (Laughlin Rd) | 2/28/26 | 0515 | 55.4 5.1 | 92 7 | 53.2 3.1 | - | - | - | 0.00 | 0.00 | 61.9 7.4 | 55.2 5.6 |
| Fulton-SE (Barnes Rd) | 5/3/26 | 1845 | 60.9 3.4 | 65 7 | 49.1 0.4 | 0.0 4.0 | N | 0 | 0.0 7.2 | 0.00 | 0.00 | 64.8 3.6 | 53.7 0.8 |
| Fulton-SW (Ranch 21) | 5/3/26 | 1815 | 60.7 2.8 | 67 5 | 49.5 0.6 | 7.2 0.8 | SSW | 203 | 11.1 0.8 | 0.00 | 0.00 | 65.1 3.8 | 52.6 0.6 |
| NW Santa Rosa (Piner Road) | 5/3/26 | 1845 | 59.8 3.0 | 75 8 | 51.9 0.0 | 6.2 3.5 | SW | 224 | 10.6 5.2 | 0.00 | 0.00 | 64.2 3.8 | 52.9 0.7 |
| River Rd South (Denner Ranch) | 5/3/26 | 1845 | 60.7 3.7 | 65 9 | 48.8 0.2 | 6.8 0.4 | SSW | 204 | 11.0 1.5 | - | - | 64.6 2.8 | 52.5 1.1 |
| West Santa Rosa (LOV Vineyard) | 5/3/26 | 1845 | 59.8 2.8 | 67 7 | 49.0 0.0 | 5.3 1.8 | SW | 215 | 10.3 3.9 | 0.00 | 0.00 | 65.0 3.9 | 53.1 0.8 |
| Guerneville Rd (Prokopakis) | 5/3/26 | 1845 | 64.5 3.7 | 61 6 | 50.8 0.8 | - | - | - | 0.00 | 0.00 | 70.1 3.2 | 53.7 0.9 |
| SunnyView Vineyard (SCWC) | 5/3/26 | 1845 | 59.9 3.3 | 67 7 | 48.9 0.6 | 5.1 2.9 | SW | 220 | 10.7 5.4 | 0.00 | 0.00 | 64.9 3.4 | 52.7 0.7 |
| Guerneville Rd West (Balletto) | 5/3/26 | 1845 | 60.3 3.2 | 72 6 | 51.2 0.8 | 5.3 1.5 | SW | 224 | 10.1 3.5 | 0.00 | 0.00 | 65.4 4.4 | 53.2 0.7 |
| Sanchietti Ranch | 5/3/26 | 1845 | 61.8 4.1 | 73 6 | 52.9 1.8 | 4.6 0.1 | SW | 232 | 9.6 0.1 | 0.00 | 0.00 | 67.0 4.3 | 54.0 0.5 |
| Occidental Rd (Sebastopol) | 5/3/26 | 1845 | 60.3 3.5 | 96 4 | 59.2 2.4 | 5.8 1.4 | SW | 233 | 15.6 6.6 | 0.00 | 0.00 | 66.7 5.1 | 52.5 0.7 |
| Harper's Rest (Windsor-West) | 5/3/26 | 1845 | 59.0 1.3 | 63 8 | 46.6 2.0 | 3.5 0.9 | WSW | 238 | 8.1 0.0 | 0.00 | 0.00 | 63.1 0.5 | 51.9 1.2 |
| Lower Westside Rd (Ranch 12) | 5/3/26 | 1845 | 60.3 1.8 | 62 10 | 47.3 2.1 | 4.2 1.2 | WSW | 251 | 8.8 1.6 | 0.00 | 0.00 | 64.8 0.5 | 52.9 0.9 |
| Guerneville (Laughlin Rd) | 5/3/26 | 1845 | 58.9 2.0 | 64 9 | 46.8 1.6 | 2.7 1.9 | SSW | 195 | 8.0 0.5 | 0.00 | 0.00 | 62.7 1.5 | 53.1 0.7 |
| Korbel (Winery) | 5/3/26 | 1845 | 59.9 3.6 | 64 12 | 47.8 1.0 | 3.4 2.7 | WNW | 283 | 8.3 0.9 | 0.00 | 0.00 | 63.9 0.9 | 53.6 1.2 |
| Forestville (Shone Farms) | 5/3/26 | 1845 | 61.1 2.8 | 63 11 | 48.2 1.6 | 2.8 0.4 | W | 278 | 6.7 0.7 | 0.00 | 0.00 | 64.5 0.7 | 51.2 0.7 |
| Forestville-NE (Ranch 30) | 5/3/26 | 1845 | 59.9 1.9 | 69 9 | 49.6 1.4 | 3.4 2.1 | WNW | 298 | 7.0 2.6 | 0.00 | 0.00 | 64.4 0.4 | 52.5 1.2 |
| Foggy Bend (Ranch 41) | 5/3/26 | 1845 | 61.0 1.7 | 67 7 | 49.9 1.2 | 5.8 1.6 | WNW | 297 | 10.7 4.1 | 0.00 | 0.00 | 64.4 0.0 | 53.6 1.0 |
| Last Stop | 5/3/26 | 1845 | 59.6 2.0 | 66 9 | 48.3 1.4 | 2.7 0.0 | WSW | 248 | 5.8 2.5 | 0.00 | 0.00 | 64.4 1.1 | 53.0 1.4 |
| Green Valley Vineyard | 5/3/26 | 1845 | 59.6 3.3 | 66 10 | 48.4 0.7 | 4.1 1.0 | SSW | 213 | 7.7 2.0 | 0.00 | 0.00 | 63.5 1.8 | 52.2 1.6 |
| Park Royal | 5/3/26 | 1845 | 60.5 3.4 | 62 10 | 47.4 0.6 | - | - | - | 0.00 | 0.00 | 64.6 3.2 | 52.9 0.4 |
| Merino | 5/3/26 | 1845 | 60.5 3.9 | 72 8 | 51.3 0.9 | 4.5 0.0 | SSW | 204 | 9.8 2.2 | 0.00 | 0.00 | 64.4 2.7 | 52.8 0.4 |
| Green Valley (Sanchietti) | 5/3/26 | 1845 | 62.7 4.2 | - | - | - | - | - | - | - | 66.9 2.4 | 53.6 1.5 |
| Keefer Ranch (Green Valley) | 5/3/26 | 1845 | 59.4 2.2 | 69 8 | 49.2 0.6 | - | - | - | 0.00 | 0.00 | 63.5 0.8 | 53.5 1.5 |
| Graton-West (Dutton Ranch) | 5/3/26 | 1845 | 60.1 2.9 | 98 2 | 59.4 2.2 | 2.3 0.4 | WSW | 243 | 6.2 1.1 | 0.00 | 0.00 | 66.0 3.4 | 53.3 1.3 |
| Graton-South (Mill Station Rd) | 5/3/26 | 1845 | 58.9 3.1 | 73 4 | 50.4 1.5 | 2.8 0.7 | SW | 226 | 5.9 1.0 | 0.00 | 0.00 | 64.0 4.1 | 52.1 0.6 |
| Occidental (Horseshoe Bend) | 5/3/26 | 1845 | 56.5 3.4 | 78 5 | 49.6 1.6 | - | - | - | 0.00 | 0.00 | 61.7 3.9 | 50.3 0.8 |
| Sexton Valley (Jacqueline's Blk) | 5/3/26 | 1845 | 59.2 2.3 | 76 2 | 51.7 1.7 | 2.5 0.7 | SW | 217 | 5.6 2.0 | 0.00 | 0.00 | 64.4 4.2 | 52.5 0.6 |
| Sebastopol Hills (Burnside Rd) | 5/3/26 | 1845 | 56.7 3.1 | 83 2 | 51.6 2.4 | 5.8 0.3 | SSW | 205 | 11.5 1.1 | 0.00 | 0.00 | 61.4 4.2 | 50.7 0.5 |
| Pleasant Hill | 5/3/26 | 1845 | 57.5 2.6 | 74 4 | 49.2 1.2 | 5.0 1.0 | WSW | 247 | 10.3 1.8 | 0.00 | 0.00 | 65.2 6.3 | 51.3 0.6 |
| Seaview/Fort Ross (Hirsch) | 5/3/26 | 1845 | 50.4 2.0 | 83 10 | 45.5 1.0 | 1.2 1.0 | SSW | 210 | 3.1 1.7 | 0.00 | 0.00 | 55.8 1.8 | 46.1 0.5 |
| Max | 64.5 | 98 | 59.4 | 7.2 | - | 15.6 | 0.00 | 0.00 | 70.1 | 54.0 | ||
| Avg | 59.8 | 70 | 49.9 | 4.0 | - | 8.3 | 0.00 | - | - | - | ||
| Min | 50.4 | 61 | 45.5 | 0.0 | - | 0.0 | 0.00 | 0.00 | 55.8 | 46.1 |
| Station | Date | Time | Temp (°F) | RH (%) | Dew Pt (°F) | Wind Spd (mph) | Wind Dir (°) | Wind Gust (mph) | Latest Rain (In) | Daily Rain (In) | Daily Min Temp (°F) | Daily Max Temp (°F) |
|---|---|---|---|---|---|---|---|---|---|---|---|---|
| Upper Rincon Valley | 5/3/26 | 1845 | 57.1 4.9 | 70 13 | 47.4 0.1 | 2.3 0.1 | S | 175 | 6.4 1.3 | 0.00 | 0.00 | 48.7 1.0 | 61.0 0.9 |
| Lower Bennett Valley | 5/3/26 | 1845 | 59.0 4.5 | 70 10 | 49.1 0.8 | 4.8 1.3 | N | 354 | 8.3 0.0 | 0.00 | 0.00 | 51.7 1.2 | 63.9 1.9 |
| Kenwood (Wildwood) | 5/3/26 | 1845 | 59.0 4.4 | 67 11 | 48.1 0.1 | 5.9 1.0 | NNW | 341 | 13.5 3.4 | 0.00 | 0.00 | 51.6 1.5 | 66.4 2.0 |
| Crane Creek (Ranch 62) | 5/3/26 | 1845 | 59.4 4.6 | 69 7 | 49.4 1.8 | 1.1 2.9 | SW | 230 | 4.8 2.4 | 0.00 | 0.00 | 52.0 0.3 | 67.6 6.7 |
| Rohnert Park-West (Stony Point) | 5/3/26 | 1845 | 58.5 3.5 | 78 4 | 51.6 2.0 | 5.7 1.3 | SW | 225 | 9.8 0.0 | 0.00 | 0.00 | 52.4 0.2 | 64.3 4.1 |
| Rice-Spivak Vineyard | 5/3/26 | 1845 | 59.3 4.4 | - | - | - | - | - | - | - | 51.8 0.1 | 66.5 4.0 |
| Cartograph Wines Base | 5/3/26 | 1845 | 57.7 3.9 | 82 4 | 52.2 2.4 | 5.6 0.6 | SW | 220 | 15.0 5.8 | 0.00 | 0.00 | 51.4 0.2 | 61.9 3.6 |
| Cartograph Wines Remote | 5/3/26 | 1845 | 59.2 4.3 | - | - | - | - | - | - | - | 52.1 0.0 | 64.0 3.6 |
| Penngrove (Asellus) | 5/3/26 | 1845 | 58.5 3.8 | 70 7 | 48.9 1.1 | 4.4 1.2 | W | 270 | 8.2 0.1 | 0.00 | 0.00 | 52.3 0.1 | 65.0 4.3 |
| Sonoma Valley (Bedrock) | 5/3/26 | 1845 | 61.0 4.2 | 60 12 | 46.8 0.8 | - | - | - | 0.00 | 0.00 | 50.7 4.9 | 65.0 0.3 |
| Sonoma-West (Arnold) | 5/3/26 | 1845 | 60.2 3.5 | 67 5 | 49.0 1.3 | 5.2 0.6 | W | 263 | 11.3 1.8 | 0.00 | 0.00 | 53.2 7.8 | 66.2 1.4 |
| Sonoma Valley HS | 5/3/26 | 1845 | 60.0 3.0 | 73 4 | 51.5 1.6 | 3.7 1.0 | WSW | 245 | 8.3 2.2 | 0.00 | 0.01 | 53.1 3.5 | 65.1 2.0 |
| Sonoma East (Bundschu01) | 5/3/26 | 1845 | 60.6 2.9 | 65 5 | 48.8 0.9 | 7.2 0.0 | W | 273 | 13.6 2.4 | 0.00 | 0.00 | 53.2 4.6 | 65.3 1.0 |
| Sonoma-SE (Napoli) | 5/3/26 | 1845 | 60.8 3.0 | 62 6 | 47.8 0.2 | 6.4 0.4 | W | 277 | 11.5 4.4 | 0.00 | 0.00 | 53.1 3.8 | 66.0 0.9 |
| Schellville (Sasaki) | 2/7/26 | 1900 | 53.4 2.2 | 88 10 | 49.9 1.0 | 3.3 1.8 | SW | 225 | 5.8 4.0 | 0.00 | 0.00 | 47.0 0.8 | 62.8 8.4 |
| Petaluma (Ranch 10) | 5/3/26 | 1845 | 60.4 3.7 | 66 6 | 48.9 1.2 | 5.4 0.3 | WNW | 285 | 10.4 0.9 | 0.00 | 0.00 | 53.5 1.1 | 66.9 2.8 |
| Carneros (Ranch 71) | 5/3/26 | 1845 | 59.7 3.4 | 66 6 | 48.4 0.9 | 9.4 3.1 | W | 280 | 15.6 3.9 | 0.00 | 0.00 | 52.1 0.8 | 64.1 0.5 |
| Ricci Vineyards (Carneros) | 5/3/26 | 1845 | 60.8 3.6 | 64 7 | 48.7 0.8 | 8.9 0.6 | WNW | 292 | 13.8 2.3 | 0.00 | 0.00 | 52.9 1.9 | 65.7 0.3 |
| Carneros Upper (Ranch 81) | 5/3/26 | 1845 | 59.1 3.4 | 65 7 | 47.4 0.4 | 11.8 5.0 | W | 272 | 18.6 6.5 | - | - | 52.1 0.0 | 64.8 0.6 |
| Carneros Lower (Ranch 81) | 5/3/26 | 1845 | 60.6 1.8 | 65 4 | 48.9 0.3 | 1.5 0.9 | WNW | 288 | 7.7 1.9 | 0.00 | 0.00 | 53.0 0.4 | 69.4 1.0 |
| Max | 61.0 | 82 | 52.2 | 11.8 | - | 18.6 | 0.00 | 0.01 | 53.5 | 69.4 | ||
| Avg | 59.5 | 68 | 49.0 | 5.6 | - | 11.0 | 0.00 | - | - | - | ||
| Min | 57.1 | 60 | 46.8 | 1.1 | - | 4.8 | 0.00 | 0.00 | 48.7 | 61.0 |